Location: Warszawa
(52.2500°N, 21.0000°E)
Time: 20:35:34
(UTC+02:00)

ITUPSAT 1 - Visible Passes

Search period start: 22 April 2024 00:00
Search period end: 02 May 2024 00:00
Orbit: 695 x 707 km, 98.5° (Epoch: 21 April)

Date Brightness Start Highest point End Pass type
(mag) Time Alt. Az. Time Alt. Az. Time Alt. Az.
22 Apr ? 00:00:20 10° N 00:04:24 29° WNW 00:06:27 21° WSW visible
22 Apr ? 21:28:00 10° NE 21:30:59 16° E 21:31:38 16° E visible
22 Apr ? 23:04:30 10° NNE 23:09:16 79° WNW 23:10:29 50° SSW visible
23 Apr ? 00:43:33 10° NNW 00:46:14 15° NW 00:48:54 10° W visible
23 Apr ? 22:09:19 10° NNE 22:13:41 36° E 22:14:31 33° ESE visible
23 Apr ? 23:47:03 10° N 23:51:24 36° WNW 23:53:22 25° WSW visible
24 Apr ? 21:15:38 10° ENE 21:17:40 13° E 21:18:33 12° E visible
24 Apr ? 22:51:22 10° NNE 22:56:08 81° ESE 22:57:24 49° S visible
25 Apr ? 00:30:02 10° NNW 00:33:17 19° NW 00:36:16 11° W visible
25 Apr ? 21:56:23 10° NE 22:00:27 28° E 22:01:25 26° ESE visible
25 Apr ? 23:33:48 10° N 23:38:19 46° WNW 23:40:17 29° WSW visible
26 Apr ? 22:38:14 10° NNE 22:42:58 62° ESE 22:44:18 43° SSE visible
27 Apr ? 00:16:36 10° N 00:20:17 23° WNW 00:23:09 14° WSW visible
27 Apr ? 21:43:29 10° NE 21:47:09 22° E 21:48:18 20° ESE visible
27 Apr ? 23:20:33 10° N 23:25:13 59° WNW 23:27:10 33° SW visible
28 Apr ? 01:00:15 10° NNW 01:01:59 12° NW 01:03:43 10° WNW visible
28 Apr ? 22:25:08 10° NNE 22:29:44 48° E 22:31:09 36° SSE visible
29 Apr ? 00:03:12 10° N 00:07:13 28° WNW 00:10:00 16° WSW visible
29 Apr ? 21:30:44 10° NE 21:33:48 17° E 21:35:08 15° ESE visible
29 Apr ? 23:07:18 10° NNE 23:12:03 77° WNW 23:14:00 36° SSW visible
30 Apr ? 00:46:24 10° NNW 00:48:59 15° NW 00:51:34 10° W visible
30 Apr ? 22:12:03 10° NNE 22:16:27 37° E 22:17:58 29° SE visible
30 Apr ? 23:49:49 10° N 23:54:07 35° WNW 23:56:50 19° WSW visible
01 May ? 21:18:12 10° ENE 21:20:24 13° E 21:21:57 11° ESE visible
01 May ? 22:54:04 10° NNE 22:58:50 83° ESE 23:00:48 36° S visible
